Location: Saint-Restitut
(44.3351°N, 4.7915°E)
Time: 03:26:59
(UTC+00:00)

BlueWalker 3 - Pass Details

Date: 03 February 2023
Orbit: 497 x 515 km, 53.2° (Epoch: 27 March)

Event Time Altitude Azimuth Distance (km) Brightness Sun altitude
Rises 18:31:24 0° 295° (WNW) 2,603 6.6 -17.9°
Reaches altitude 10° 18:33:58 10° 311° (NW) 1,723 5.2 -18.3°
Maximum altitude 18:37:04 22° 4° (N) 1,150 3.6 -18.9°
Enters shadow 18:37:35 21° 16° (NNE) 1,171 3.6 -19.0°
